Location: *
(46.1333°S, 161.2167°W)
Time: 10:41:32
(UTC+00:00)

Cosmos 2298 Rocket - Pass Details

Date: 02 November 2020
Orbit: 777 x 783 km, 74.0° (Epoch: 25 November)

Event Time Altitude Azimuth Distance (km) Brightness Sun altitude
Exits shadow 09:28:04 25° 106° (ESE) 1,561 5.5 -27.4°
Drops below altitude 10° 09:31:13 10° 138° (SE) 2,373 6.9 -27.6°
Sets 09:33:55 0° 149° (SSE) 3,310 7.9 -27.7°
